| time (UTC) | temp C | wind direction | speed KPH | gust KPH | rain 1hr cm | rain 24hr cm | rain mn cm | humidity % | barometer mb |
| 20260902021516 | 17 | 0.0 | 3.2 | 0.00 | 0.00 | 0.00 | 52 | 1014.3 | |
| 20260902020016 | 17 | 0.0 | 1.6 | 0.00 | 0.00 | 0.00 | 52 | 1014.2 | |
| 20260902014517 | 18 | 0.0 | 1.6 | 0.00 | 0.00 | 0.00 | 52 | 1014.3 | |
| 20260902013017 | 18 | 0.0 | 4.8 | 0.00 | 0.00 | 0.00 | 52 | 1014.4 | |
| 20260902011516 | 18 | 0.0 | 4.8 | 0.00 | 0.00 | 0.00 | 51 | 1014.4 | |
| 20260902010037 | 18 | 0.0 | 4.8 | 0.00 | 0.00 | 0.00 | 52 | 1014.4 | |
| 20260902004516 | 19 | 158 | 1.6 | 6.4 | 0.00 | 0.00 | 0.00 | 49 | 1014.6 |
| 20260902003017 | 19 | 113 | 1.6 | 11.3 | 0.00 | 0.00 | 0.00 | 47 | 1014.5 |
| 20260902001536 | 19 | 113 | 3.2 | 11.3 | 0.00 | 0.00 | 0.00 | 49 | 1014.6 |
| 20260902000037 | 20 | 270 | 1.6 | 8.0 | 0.00 | 0.00 | 0.00 | 48 | 1014.5 |
| 20260901234516 | 20 | 135 | 1.6 | 8.0 | 0.00 | 0.00 | 0.00 | 49 | 1014.5 |
| 20260901233016 | 20 | 203 | 1.6 | 9.7 | 0.00 | 0.00 | 0.00 | 50 | 1014.6 |
| 20260901231516 | 20 | 203 | 1.6 | 6.4 | 0.00 | 0.00 | 0.00 | 50 | 1014.8 |
| 20260901230017 | 20 | 113 | 1.6 | 9.7 | 0.00 | 0.00 | 0.00 | 50 | 1014.9 |
| 20260901224516 | 20 | 225 | 1.6 | 8.0 | 0.00 | 0.00 | 0.00 | 50 | 1015.0 |
| 20260901223017 | 20 | 113 | 3.2 | 14.5 | 0.00 | 0.00 | 0.00 | 51 | 1015.1 |
| 20260901221516 | 20 | 113 | 1.6 | 8.0 | 0.00 | 0.00 | 0.00 | 52 | 1015.2 |
| 20260901220016 | 20 | 180 | 1.6 | 11.3 | 0.00 | 0.00 | 0.00 | 52 | 1015.4 |
| 20260901214516 | 19 | 113 | 3.2 | 12.9 | 0.00 | 0.00 | 0.00 | 53 | 1015.4 |
| 20260901213016 | 20 | 135 | 1.6 | 11.3 | 0.00 | 0.00 | 0.00 | 54 | 1015.5 |
| 20260901211516 | 20 | 135 | 1.6 | 9.7 | 0.00 | 0.00 | 0.00 | 55 | 1015.7 |
| 20260901210016 | 20 | 180 | 1.6 | 9.7 | 0.00 | 0.00 | 0.00 | 54 | 1015.7 |
| 20260901204516 | 18 | 270 | 1.6 | 11.3 | 0.00 | 0.00 | 0.00 | 58 | 1015.6 |
| 20260901203016 | 18 | 135 | 3.2 | 9.7 | 0.00 | 0.00 | 0.00 | 58 | 1015.7 |
| 20260901201516 | 18 | 113 | 3.2 | 16.1 | 0.00 | 0.00 | 0.00 | 58 | 1015.8 |
| 20260901200016 | 18 | 135 | 3.2 | 9.7 | 0.00 | 0.00 | 0.00 | 59 | 1015.7 |
| 20260901194516 | 18 | 113 | 3.2 | 11.3 | 0.00 | 0.00 | 0.00 | 58 | 1015.7 |
| 20260901193016 | 18 | 135 | 3.2 | 11.3 | 0.00 | 0.00 | 0.00 | 59 | 1015.7 |
| 20260901191556 | 18 | 113 | 3.2 | 11.3 | 0.00 | 0.00 | 0.00 | 60 | 1016.1 |
| 20260901190016 | 18 | 113 | 3.2 | 11.3 | 0.00 | 0.00 | 0.00 | 59 | 1016.0 |
| 20260901184516 | 17 | 180 | 1.6 | 9.7 | 0.00 | 0.00 | 0.00 | 62 | 1015.9 |
| 20260901183016 | 17 | 90 | 3.2 | 9.7 | 0.00 | 0.00 | 0.00 | 64 | 1015.9 |
| 20260901181516 | 17 | 113 | 3.2 | 8.0 | 0.00 | 0.00 | 0.00 | 61 | 1015.7 |
| 20260901180016 | 17 | 113 | 4.8 | 9.7 | 0.00 | 0.00 | 0.00 | 64 | 1015.6 |
| 20260901174516 | 16 | 113 | 4.8 | 11.3 | 0.00 | 0.00 | 0.00 | 69 | 1015.5 |
| 20260901173016 | 15 | 113 | 3.2 | 9.7 | 0.00 | 0.00 | 0.00 | 69 | 1015.5 |
| 20260901171516 | 15 | 135 | 3.2 | 11.3 | 0.00 | 0.00 | 0.00 | 70 | 1015.4 |
| 20260901170016 | 15 | 113 | 4.8 | 16.1 | 0.00 | 0.00 | 0.00 | 71 | 1015.2 |
| 20260901164516 | 16 | 113 | 4.8 | 9.7 | 0.00 | 0.00 | 0.00 | 68 | 1015.2 |
| 20260901163016 | 15 | 113 | 4.8 | 9.7 | 0.00 | 0.00 | 0.00 | 71 | 1014.8 |
| 20260901161516 | 14 | 113 | 3.2 | 11.3 | 0.00 | 0.00 | 0.00 | 75 | 1014.7 |
| 20260901160036 | 14 | 113 | 4.8 | 9.7 | 0.00 | 0.00 | 0.00 | 76 | 1014.5 |
| 20260901154536 | 13 | 113 | 4.8 | 9.7 | 0.00 | 0.00 | 0.00 | 79 | 1014.4 |
| 20260901153036 | 13 | 113 | 3.2 | 14.5 | 0.00 | 0.00 | 0.00 | 82 | 1014.1 |
| 20260901151516 | 12 | 113 | 3.2 | 6.4 | 0.00 | 0.00 | 0.00 | 84 | 1014.1 |
| 20260901150016 | 12 | 113 | 4.8 | 9.7 | 0.00 | 0.00 | 0.00 | 85 | 1013.7 |
| 20260901144516 | 12 | 113 | 4.8 | 9.7 | 0.00 | 0.00 | 0.00 | 88 | 1013.7 |
| 20260901143016 | 11 | 90 | 4.8 | 8.0 | 0.00 | 0.00 | 0.00 | 91 | 1013.4 |
| 20260901141516 | 10 | 90 | 4.8 | 9.7 | 0.00 | 0.00 | 0.00 | 91 | 1013.1 |
| 20260901140036 | 10 | 90 | 3.2 | 11.3 | 0.00 | 0.00 | 0.00 | 92 | 1013.0 |
| 20260901134516 | 10 | 90 | 4.8 | 16.1 | 0.00 | 0.00 | 0.00 | 92 | 1013.0 |
| 20260901133016 | 10 | 90 | 6.4 | 16.1 | 0.00 | 0.00 | 0.00 | 92 | 1012.9 |
| 20260901131516 | 10 | 90 | 4.8 | 20.9 | 0.00 | 0.00 | 0.00 | 92 | 1013.1 |
| 20260901130016 | 10 | 90 | 4.8 | 11.3 | 0.00 | 0.00 | 0.00 | 92 | 1013.1 |
| 20260901124516 | 10 | 113 | 3.2 | 14.5 | 0.00 | 0.00 | 0.00 | 92 | 1013.2 |
| 20260901123015 | 10 | 113 | 3.2 | 14.5 | 0.00 | 0.00 | 0.00 | 91 | 1013.2 |
| 20260901121556 | 10 | 113 | 3.2 | 6.4 | 0.00 | 0.00 | 0.00 | 91 | 1012.8 |
| 20260901120016 | 10 | 158 | 1.6 | 8.0 | 0.00 | 0.00 | 0.00 | 90 | 1012.6 |
| 20260901114536 | 10 | 158 | 3.2 | 8.0 | 0.00 | 0.00 | 0.00 | 89 | 1012.6 |
| 20260901113016 | 10 | 180 | 1.6 | 8.0 | 0.00 | 0.00 | 0.00 | 88 | 1012.3 |
| 20260901111515 | 11 | 0.0 | 3.2 | 0.00 | 0.00 | 0.00 | 87 | 1012.2 | |
| 20260901110016 | 11 | 0.0 | 4.8 | 0.00 | 0.00 | 0.00 | 86 | 1012.1 | |
| 20260901104535 | 11 | 90 | 1.6 | 4.8 | 0.00 | 0.00 | 0.00 | 86 | 1012.3 |
| 20260901103035 | 12 | 68 | 4.8 | 11.3 | 0.00 | 0.00 | 0.00 | 86 | 1011.8 |
| 20260901101516 | 11 | 90 | 4.8 | 6.4 | 0.00 | 0.00 | 0.00 | 86 | 1012.0 |
| 20260901100036 | 11 | 90 | 3.2 | 8.0 | 0.00 | 0.00 | 0.00 | 85 | 1012.2 |
| 20260901094516 | 12 | 0.0 | 3.2 | 0.00 | 0.00 | 0.00 | 85 | 1012.3 | |
| 20260901093015 | 12 | 113 | 1.6 | 3.2 | 0.00 | 0.00 | 0.00 | 84 | 1012.4 |
| 20260901091516 | 12 | 113 | 1.6 | 4.8 | 0.00 | 0.00 | 0.00 | 84 | 1012.5 |
| 20260901090016 | 12 | 113 | 1.6 | 4.8 | 0.00 | 0.00 | 0.00 | 83 | 1012.4 |
| 20260901084515 | 12 | 90 | 1.6 | 4.8 | 0.00 | 0.00 | 0.00 | 82 | 1012.6 |
| 20260901083016 | 12 | 113 | 3.2 | 6.4 | 0.00 | 0.00 | 0.00 | 81 | 1012.6 |
| 20260901081515 | 12 | 113 | 3.2 | 6.4 | 0.00 | 0.00 | 0.00 | 81 | 1012.7 |
| 20260901080016 | 12 | 113 | 3.2 | 8.0 | 0.00 | 0.00 | 0.00 | 80 | 1012.7 |
| 20260901074516 | 13 | 135 | 3.2 | 9.7 | 0.00 | 0.00 | 0.00 | 79 | 1012.9 |
| 20260901073016 | 13 | 135 | 1.6 | 9.7 | 0.00 | 0.00 | 0.00 | 79 | 1012.9 |
| 20260901071536 | 13 | 135 | 1.6 | 11.3 | 0.00 | 0.00 | 0.00 | 79 | 1012.8 |
| 20260901070015 | 13 | 113 | 3.2 | 8.0 | 0.00 | 0.00 | 0.00 | 79 | 1012.7 |
| 20260901064517 | 14 | 113 | 3.2 | 6.4 | 0.00 | 0.00 | 0.00 | 78 | 1012.8 |
| 20260901063016 | 14 | 113 | 1.6 | 8.0 | 0.00 | 0.00 | 0.00 | 77 | 1012.8 |
| 20260901061517 | 15 | 113 | 1.6 | 6.4 | 0.00 | 0.00 | 0.00 | 75 | 1012.7 |
| 20260901060016 | 15 | 113 | 1.6 | 4.8 | 0.00 | 0.00 | 0.00 | 74 | 1012.7 |
| 20260901054517 | 15 | 113 | 3.2 | 4.8 | 0.00 | 0.00 | 0.00 | 73 | 1012.7 |
| 20260901053036 | 15 | 113 | 1.6 | 4.8 | 0.00 | 0.00 | 0.00 | 72 | 1012.6 |
| 20260901051517 | 16 | 113 | 1.6 | 4.8 | 0.00 | 0.00 | 0.00 | 71 | 1012.4 |
| 20260901050036 | 16 | 113 | 1.6 | 4.8 | 0.00 | 0.00 | 0.00 | 71 | 1012.5 |
| 20260901044536 | 16 | 113 | 1.6 | 6.4 | 0.00 | 0.00 | 0.00 | 70 | 1012.2 |
| 20260901043036 | 16 | 113 | 1.6 | 4.8 | 0.00 | 0.00 | 0.00 | 70 | 1012.3 |
| 20260901041517 | 16 | 0.0 | 4.8 | 0.00 | 0.00 | 0.00 | 68 | 1012.0 | |
| 20260901040036 | 17 | 0.0 | 3.2 | 0.00 | 0.00 | 0.00 | 67 | 1012.0 | |
| 20260901034517 | 17 | 0.0 | 3.2 | 0.00 | 0.00 | 0.00 | 66 | 1011.7 | |
| 20260901033016 | 18 | 0.0 | 0.0 | 0.00 | 0.00 | 0.00 | 63 | 1011.7 | |
| 20260901031516 | 18 | 0.0 | 0.0 | 0.00 | 0.00 | 0.00 | 61 | 1011.5 | |
| 20260901030016 | 19 | 0.0 | 1.6 | 0.00 | 0.00 | 0.00 | 59 | 1011.4 | |
| 20260901024516 | 20 | 0.0 | 1.6 | 0.00 | 0.00 | 0.00 | 55 | 1011.2 | |
| 20260901023017 | 21 | 0.0 | 3.2 | 0.00 | 0.00 | 0.00 | 52 | 1011.2 |